sat.trackr.live / text

‹ back to catalog

STARLINK-32627

NORAD 62315 · 2024-239Q

PAYLOAD ACTIVE UNKNOWN

§ Identity

Operator
Country
US
Launch date
2024-12-13
Launch site
AFWTR
Launch vehicle
Mass (kg)
RCS (m²)

Purposes: comms

External: N2YO · Heavens-Above · Gunter

§ Orbital elements

Epoch: 2026-09-21T17:37:28.052544Z

Period
93.85 min
Inclination
53.1618°
Eccentricity
0.0001139
Mean motion
15.34407954 rev/d
Perigee alt
461.9 km
Apogee alt
463.5 km
Semi-major
6,840.8 km
B*
6.9291e-4
RAAN
0.1178°
Arg perigee
64.5827°
Mean anomaly
295.5294°
Rev number
9,944

§ Raw data

STARLINK-326271 62315U 24239Q   26264.73435246  .00023113  00000+0  69291-3 0  99902 62315  53.1618   0.1178 0001139  64.5827 295.5294 15.34407954 99440

JSON: /api/v1/satellites/62315 · /tle

For live sub-satellite position, see the globe view (requires WebGL).

§ Visibility from observer

Set your observer location to see the next 7 days of passes ≥ 10°. The values pass through the URL so the page stays shareable.

No JS? Fill the form by hand. The geolocation button needs JavaScript.